Weather History for Ajaccio, France

Change the Weather History Date:

Wednesday, November 13, 2013

  Actual Average Record
Temperature  
Mean Temperature 60 °F -  
Max Temperature 68 °F 59 °F 75 °F (2000)
Min Temperature 53 °F 43 °F 42 °F (1998)
Degree Days  
Heating Degree Days 4    
Growing Degree Days 10 (Base 50)    
Moisture  
Dew Point 53 °F    
Average Humidity 76    
Maximum Humidity 94    
Minimum Humidity 51    
Precipitation  
Precipitation 0.00 in 0.11 in - ()
Sea Level Pressure  
Sea Level Pressure 29.98 in    
Wind  
Wind Speed 5 mph ()    
Max Wind Speed 10 mph    
Max Gust Speed -    
Visibility 6.3 miles    
Events      
Averages and records for this station are not official NWS values.
T = Trace of Precipitation, MM = Missing Value Source: Averaged Metar Reports

Daily Weather History Graph

Daily Weather History Graph

Search for Another Location

Airport:

Trip Planner

Search our weather history database for the weather conditions in past years. The results will help you decide how hot, cold, wet, or windy it might be!

Date:

Astronomy

Nov. 13, 2013 Rise Set
Actual Time 7:12 AM CET 5:05 PM CET
Civil Twilight 6:42 AM CET 5:35 PM CET
Nautical Twilight 6:08 AM CET 6:09 PM CET
Astronomical Twilight 5:35 AM CET 6:41 PM CET
Moon 2:47 PM CET (11/13) 2:44 AM CET (11/13)
Length of Visible Light 10h 53m
Length of Day
9h 53m
Waxing Gibbous, 82% of the Moon is Illuminated
Nov 13
Waxing Gibbous
Nov 17
Full
Nov 25
Last Quarter
Dec 3
New
Dec 9
First Quarter

Hourly Weather History & Observations

Time (CET) Temp. Dew Point Humidity Pressure Visibility Wind Dir Wind Speed Gust Speed Precip Events Conditions
12:00 AM 60.8 °F 51.8 °F 72% 29.98 in 6.2 mi Variable 2.3 mph - N/A   Mostly Cloudy
12:30 AM 59.0 °F 50.0 °F 72% 29.98 in 6.2 mi NE 4.6 mph - N/A   Unknown
1:00 AM 58 °F 51 °F 69% 29.99 in 22 mi NE 5.8 mph - -   Clear
1:00 AM 59.0 °F 50.0 °F 72% 29.98 in 6.2 mi NE 5.8 mph - N/A   Unknown
1:30 AM 59.0 °F 50.0 °F 72% 29.98 in 6.2 mi ENE 3.5 mph - N/A   Overcast
2:00 AM 59.0 °F 51.8 °F 77% 29.98 in 6.2 mi NE 5.8 mph - N/A   Overcast
2:30 AM 57.2 °F 51.8 °F 82% 29.98 in 6.2 mi NE 5.8 mph - N/A   Unknown
3:00 AM 57.2 °F 50.0 °F 77% 29.95 in 6.2 mi NNE 3.5 mph - N/A   Overcast
3:30 AM 57.2 °F 50.0 °F 77% 29.95 in 6.2 mi NE 5.8 mph - N/A   Unknown
4:00 AM 57 °F 50 °F 70% 29.97 in 31 mi NE 6.9 mph - -   Clear
4:00 AM 57.2 °F 50.0 °F 77% 29.95 in 6.2 mi NE 6.9 mph - N/A   Unknown
4:30 AM 57.2 °F 50.0 °F 77% 29.95 in 6.2 mi NE 8.1 mph - N/A   Unknown
5:00 AM 57.2 °F 50.0 °F 77% 29.95 in 6.2 mi NE 10.4 mph - N/A   Unknown
5:30 AM 55.4 °F 48.2 °F 77% 29.95 in 6.2 mi NNE 8.1 mph - N/A   Unknown
6:00 AM 55.4 °F 48.2 °F 77% 29.95 in - NE 6.9 mph - N/A   Clear
6:30 AM 53.6 °F 48.2 °F 82% 29.95 in - NE 8.1 mph - N/A   Clear
7:00 AM 54 °F 48 °F 74% 29.97 in 22 mi NE 6.9 mph - -   Partly Cloudy
7:00 AM 53.6 °F 48.2 °F 82% 29.95 in - NE 8.1 mph - N/A   Clear
7:30 AM 53.6 °F 48.2 °F 82% 29.95 in - NE 6.9 mph - N/A   Clear
8:00 AM 53.6 °F 48.2 °F 82% 29.95 in 6.2 mi NE 8.1 mph - N/A   Partly Cloudy
8:30 AM 55.4 °F 48.2 °F 77% 29.98 in 6.2 mi NE 6.9 mph - N/A   Partly Cloudy
9:00 AM 59.0 °F 50.0 °F 72% 29.98 in 6.2 mi NE 4.6 mph - N/A   Partly Cloudy
9:30 AM 59.0 °F 50.0 °F 72% 29.98 in 6.2 mi NE 8.1 mph - N/A   Partly Cloudy
10:00 AM 64 °F 50 °F 51% 29.99 in 28 mi NE 2.3 mph - -   Scattered Clouds
10:00 AM 64.4 °F 51.8 °F 64% 29.98 in 6.2 mi Variable 2.3 mph - N/A   Partly Cloudy
10:30 AM 66.2 °F 51.8 °F 60% 29.98 in 6.2 mi Calm Calm - N/A   Partly Cloudy
11:00 AM 66.2 °F 50.0 °F 56% 29.98 in 6.2 mi Variable 2.3 mph - N/A   Scattered Clouds
11:30 AM 68.0 °F 51.8 °F 56% 29.98 in 6.2 mi Variable 3.5 mph - N/A   Scattered Clouds
12:00 PM 68.0 °F 55.4 °F 64% 29.98 in 6.2 mi SSW 4.6 mph - N/A   Scattered Clouds
12:30 PM 68.0 °F 57.2 °F 68% 29.98 in 6.2 mi SW 5.8 mph - N/A   Partly Cloudy
1:00 PM 68 °F 58 °F 61% 29.97 in 28 mi SW 8.1 mph - -   Scattered Clouds
1:00 PM 68.0 °F 57.2 °F 68% 29.95 in 6.2 mi SW 6.9 mph - N/A   Partly Cloudy
1:30 PM 68.0 °F 57.2 °F 68% 29.95 in 6.2 mi SW 8.1 mph - N/A   Partly Cloudy
2:00 PM 68.0 °F 57.2 °F 68% 29.95 in 6.2 mi SW 8.1 mph - N/A   Partly Cloudy
2:30 PM 68.0 °F 57.2 °F 68% 29.95 in 6.2 mi SW 6.9 mph - N/A   Partly Cloudy
3:00 PM 68.0 °F 57.2 °F 68% 29.95 in 6.2 mi SSW 6.9 mph - N/A   Partly Cloudy
3:30 PM 68.0 °F 57.2 °F 68% 29.95 in 6.2 mi SW 5.8 mph - N/A   Partly Cloudy
4:00 PM 67 °F 57 °F 63% 29.97 in 25 mi SW 6.9 mph - -   Scattered Clouds
4:00 PM 66.2 °F 57.2 °F 73% 29.95 in 6.2 mi SW 6.9 mph - N/A   Partly Cloudy
4:30 PM 66.2 °F 57.2 °F 73% 29.95 in 6.2 mi SW 4.6 mph - N/A   Partly Cloudy
5:00 PM 64.4 °F 57.2 °F 77% 29.95 in 6.2 mi SW 3.5 mph - N/A   Partly Cloudy
5:30 PM 62.6 °F 57.2 °F 82% 29.98 in 6.2 mi SSE 2.3 mph - N/A   Partly Cloudy
6:00 PM 60.8 °F 55.4 °F 82% 29.98 in 6.2 mi Variable 2.3 mph - N/A   Partly Cloudy
6:30 PM 60.8 °F 55.4 °F 82% 29.98 in 6.2 mi ENE 4.6 mph - N/A   Scattered Clouds
7:00 PM 59 °F 55 °F 84% 30.01 in 9 mi NE 4.6 mph - -   Mostly Cloudy
7:00 PM 59.0 °F 55.4 °F 88% 29.98 in 6.2 mi NE 4.6 mph - N/A   Mostly Cloudy
7:30 PM 59.0 °F 55.4 °F 88% 30.01 in 6.2 mi NE 3.5 mph - N/A   Mostly Cloudy
8:00 PM 57.2 °F 55.4 °F 94% 30.01 in 6.2 mi ENE 4.6 mph - N/A   Mostly Cloudy
8:30 PM 59.0 °F 55.4 °F 88% 30.01 in 6.2 mi NE 5.8 mph - N/A   Mostly Cloudy
9:00 PM 57.2 °F 55.4 °F 94% 30.01 in 6.2 mi ENE 6.9 mph - N/A   Partly Cloudy
9:30 PM 57.2 °F 53.6 °F 88% 30.01 in 6.2 mi NNE 6.9 mph - N/A   Partly Cloudy
10:00 PM 56 °F 53 °F 86% 30.03 in 9 mi ENE 5.8 mph - -  
10:00 PM 57.2 °F 53.6 °F 88% 30.01 in - ENE 5.8 mph - N/A   Clear
10:30 PM 55.4 °F 53.6 °F 94% 30.01 in - NE 6.9 mph - N/A   Clear
11:00 PM 55.4 °F 51.8 °F 88% 30.01 in - NE 6.9 mph - N/A   Clear
11:30 PM 55.4 °F 51.8 °F 88% 30.01 in - NNE 5.8 mph - N/A   Clear